Location: Kikino
(54.4440°N, 112.0940°W)
Time: 07:27:26
(UTC+00:00)

deb Explorer IX - Pass Details

Date: 28 May 2024
Orbit: 511 x 884 km, 38.7° (Epoch: 23 June)

Event Time Altitude Azimuth Distance (km) Brightness Sun altitude
Rises 05:28:08 0° 242° (WSW) 3,123 ? -9.9°
Reaches altitude 10° 05:32:32 10° 207° (SSW) 2,087 ? -10.2°
Maximum altitude 05:33:49 11° 192° (SSW) 1,989 ? -10.3°
Enters shadow 05:34:36 11° 182° (S) 1,994 ? -10.4°
